Temp_Advection
nan nan nan nan nan nan nan nan nan nan nan nan nan nan nan nan nan nan nan nan nan nan nan nan nan nan nan nan nan nan nan nan nan nan nan nan nan nan nan nan nan nan nan nan nan nan nan nan nan nan nan nan nan nan
nan 0 0 0 0 -0 0 0 0 0 0 0 0 0 0 0 0 0 0 0 0 -0 -0 -1 -0 -0 -0 0 0 -0 0 0 0 -0 -0 -0 -0 -0 -0 -0 0 -0 0 -0 -0 -0 -0 -0 -1 -1 -0 -0 -0 nan
nan 0 -0 0 0 0 0 0 0 0 0 -0 -0 0 0 0 0 0 0 0 0 -0 -1 -0 0 0 0 0 0 -0 -0 -0 -0 0 0 -0 0 0 0 -0 -0 -0 -1 -0 0 -0 -1 -1 -0 -0 -0 -0 -0 nan
nan 0 0 0 0 0 0 0 0 0 0 -0 0 0 0 0 0 0 0 0 -0 0 -0 -1 -0 0 0 0 0 0 0 -0 -0 -0 0 0 -0 0 0 -0 -0 -0 -0 -0 0 -0 -0 -0 -0 -0 -0 -0 -0 nan
nan 0 1 0 0 0 0 0 0 0 0 0 0 0 0 0 0 -0 -0 -0 -0 -0 -0 -1 -2 -0 0 0 0 0 0 0 0 0 0 -0 -0 -0 -0 -0 -0 -0 -0 0 -0 0 0 -0 -0 -0 -0 -0 -0 nan
nan 0 0 0 0 0 0 0 0 0 0 0 0 0 0 0 -0 -0 -0 -0 0 0 0 -0 -1 -0 0 0 0 0 0 0 0 -0 -0 -0 -0 0 0 -0 -0 -0 -0 0 0 -0 -0 -0 -0 -0 -0 -0 -0 nan
nan 0 0 0 1 1 0 0 0 0 0 0 0 0 0 0 0 0 -0 0 -0 0 -0 -0 -1 0 0 0 0 0 0 0 0 0 -0 -0 -0 0 0 -0 -0 -0 -0 -0 0 0 -0 -0 -0 -0 0 -0 -0 nan
nan 0 0 0 0 0 0 0 0 0 0 0 0 0 0 0 -0 -0 0 0 0 -0 -0 0 -0 0 0 -0 0 0 0 0 0 -0 -0 -0 -0 1 -0 -0 -0 -0 -0 -0 -0 -0 -0 -0 -0 -0 0 -0 -0 nan
nan 0 0 0 0 0 0 0 0 0 0 0 0 0 0 -0 -0 -0 -0 -0 -0 0 0 -0 -0 -0 0 -0 -0 0 0 0 0 0 -0 0 0 -0 -0 -0 -0 -0 -0 -0 -0 -0 -0 -0 -0 -0 -0 -0 -0 nan
nan 0 0 0 0 0 0 0 0 0 0 0 0 -0 -0 -0 -0 -0 0 0 0 -0 -0 -0 -0 -0 -0 0 0 -0 0 0 0 -0 -0 -0 -0 -0 -0 -0 -0 -0 -0 -0 -0 -1 -0 -1 -0 -0 -0 -0 -0 nan
nan 0 0 0 0 0 0 0 0 0 -0 -0 -0 -0 -0 -0 0 0 -0 -0 -0 -0 -0 -1 -0 -0 -0 -0 -0 -0 0 0 -0 -0 0 -0 -0 -0 -0 -0 -0 -0 -0 -0 0 0 0 -0 -0 -0 -0 -0 -0 nan
nan -0 -0 0 0 0 0 0 0 0 -0 -0 -0 0 0 -0 -0 -0 -0 -0 -0 -1 -1 -0 1 -1 0 -0 -0 0 -0 -0 -0 0 -0 -0 -0 -0 -0 -0 -0 -0 -0 -0 -0 -0 0 0 0 0 -0 -0 -0 nan
nan -0 -0 -0 0 0 0 0 0 0 0 0 0 0 -0 -0 -0 -0 0 -0 -0 -1 -0 -1 -0 0 0 0 -0 0 -0 -0 0 -0 -0 -0 -0 0 -0 -0 -0 -0 -0 -0 -0 -0 -0 -0 -0 -0 -0 -0 -0 nan
nan 0 0 -0 -0 -0 -0 0 0 0 0 0 0 -0 -0 -0 0 -0 -0 -0 -1 -0 -0 0 -0 0 -0 -0 0 0 0 -0 0 0 0 -0 -0 -0 0 0 0 -0 -0 -0 -0 -0 -0 -0 -0 -0 -0 0 0 nan
nan 0 0 -0 -0 0 -0 0 -0 0 -0 0 0 -0 -0 -0 0 -0 -0 0 0 1 -0 -0 0 -0 -0 0 -0 0 0 0 -0 0 -0 0 0 0 0 -0 -0 -0 -0 -0 -0 -0 -0 0 0 0 -0 -0 -0 nan
nan 0 -0 -0 -0 -0 0 -0 0 -0 -0 0 -0 -0 -0 -0 0 0 0 0 1 1 1 -0 -0 0 -0 0 -0 0 0 0 -0 -0 -0 0 0 0 0 -0 -0 -0 -0 -0 0 0 -0 -0 -0 -0 -0 -0 -0 nan
nan -0 -0 0 0 0 0 0 0 0 0 -0 0 0 -0 -0 -0 0 0 0 0 0 0 0 -0 0 -0 0 0 -0 0 0 1 -0 0 0 0 0 0 -0 -0 -0 -0 -0 0 0 -0 -0 -0 0 -0 -0 -0 nan
nan -0 -0 0 0 0 0 0 -0 0 -0 0 0 0 0 -0 0 0 0 0 0 0 -0 0 -0 -0 0 0 0 -0 -0 -1 0 0 0 0 0 0 -0 -0 -0 -0 0 -0 -0 -0 -0 -0 0 -0 -0 -0 -0 nan
nan -0 -0 -0 -0 0 0 -0 -0 -0 0 0 0 0 0 0 0 0 0 0 0 0 0 -0 -0 0 -0 -0 -1 -1 -0 -0 -0 0 0 0 0 -0 -0 -0 0 0 -0 -0 -0 -0 -0 -0 -0 -0 -0 -0 -0 nan
nan -0 -0 -0 0 0 -0 0 -0 -0 0 0 -0 0 0 0 0 0 0 0 0 0 -0 -0 -0 0 0 0 -0 -1 -1 -0 -1 -1 -0 0 -0 -0 -0 -0 -0 -0 -0 -0 0 -0 -0 -0 0 -0 -0 0 0 nan
nan 0 0 0 -0 0 -0 -0 -0 0 -0 -0 -0 -0 -0 -0 0 0 0 0 0 0 -0 0 0 0 0 0 1 0 -0 -0 -0 -1 -1 -0 0 -0 -0 -0 -0 -0 -0 -0 -0 0 -0 0 0 0 0 0 0 nan
nan 0 -0 -0 -0 -0 -0 -0 -0 -0 0 -0 -0 -0 0 -0 -0 0 0 0 0 0 0 0 0 0 1 1 1 0 -0 -0 -0 -0 -1 -1 -0 -0 -0 -0 -0 -0 -0 -0 -0 0 0 0 0 0 0 0 -0 nan
nan -0 -0 -0 -0 0 -0 0 0 -0 -0 -0 -0 -0 0 0 0 0 0 0 0 0 0 0 0 0 0 0 0 0 0 -0 -0 -0 -0 -0 -0 -0 -0 -0 0 0 0 0 0 0 0 0 0 0 0 0 0 nan
nan -0 -0 -0 -0 -0 -0 -0 -0 -0 -0 0 0 0 0 -0 0 0 -0 0 0 0 1 1 1 0 1 0 0 0 0 0 -0 -0 -0 -0 -0 0 0 0 0 0 0 0 0 0 0 0 0 0 0 0 0 nan
nan 0 0 -0 -0 -0 -0 -0 0 -0 0 0 0 -0 0 0 0 -0 0 0 0 0 0 0 0 0 0 0 0 0 0 0 0 -0 0 0 0 -0 0 0 0 0 0 0 0 0 0 0 0 0 0 0 0 nan
nan 0 -0 0 -0 -0 0 -0 -0 0 -0 0 0 1 -0 0 -0 -0 -0 0 -0 0 -0 0 0 0 -0 0 -0 0 0 0 0 0 0 0 0 0 0 0 0 0 0 0 0 0 0 0 0 0 0 0 0 nan
nan -0 0 0 -0 0 0 0 -0 -0 0 -0 -0 0 0 0 -0 -0 0 0 -0 0 0 0 -0 -1 -0 -0 -0 0 0 0 0 0 0 0 0 0 0 0 -0 -0 0 0 0 0 0 0 0 0 0 0 0 nan
nan -0 0 0 0 -0 -0 0 0 0 0 0 -1 0 0 0 0 -0 -0 0 0 0 0 0 -0 -0 -0 0 0 0 0 0 0 0 0 0 -0 -0 0 0 0 0 0 0 0 0 0 0 0 0 0 0 0 nan
nan 0 -0 -0 0 -0 -0 -0 -0 -0 -0 -0 0 -0 -0 -0 0 0 0 0 0 0 0 0 0 0 0 0 1 1 1 1 1 0 -0 -0 -0 -0 0 0 0 0 0 0 0 0 0 0 0 0 0 0 0 nan
nan 0 -0 -0 -0 0 -0 -0 -0 -0 0 0 -0 -0 -0 0 0 0 0 0 0 0 0 0 1 1 1 1 1 1 1 1 1 -0 -0 -0 0 0 0 0 0 0 0 0 0 0 0 0 0 0 0 0 0 nan
nan 0 -0 -0 -0 -0 -0 0 0 0 0 0 -0 -1 -0 0 1 1 1 0 0 0 0 0 0 1 1 1 1 1 0 0 -0 0 0 0 0 0 0 0 0 0 0 0 0 0 0 0 0 0 0 0 0 nan
nan -0 -0 -0 -0 -0 0 -0 -0 -0 -0 -0 -0 -0 -0 -0 -0 -0 0 1 0 0 0 0 1 1 1 1 1 0 -0 -0 0 0 0 0 0 0 0 0 0 0 0 0 0 0 0 0 0 0 0 0 0 nan
nan nan nan nan nan nan nan nan nan nan nan nan nan nan nan nan nan nan nan nan nan nan nan nan nan nan nan nan nan nan nan nan nan nan nan nan nan nan nan nan nan nan nan nan nan nan nan nan nan nan nan nan nan nan
Wind_Speed
20 18 25 37 29 28 24 20 17 15 14 12 9 9 16 16 13 10 3 2 4 2 12 11 8 6 5 4 1 10 7 8 5 5 3 3 2 3 4 4 8 4 3 2 3 4 3 25 9 7 7 10 10 13
23 16 15 28 34 29 27 21 17 14 14 14 11 11 11 16 14 12 4 4 5 6 8 14 17 12 14 16 9 5 4 5 4 3 3 3 3 3 5 4 3 3 2 2 4 2 4 11 11 13 15 14 17 14
15 16 20 19 22 29 29 23 19 16 15 13 12 11 10 14 14 15 8 5 6 5 14 6 2 3 8 3 9 3 1 3 5 5 1 2 2 3 3 3 4 3 11 3 3 6 8 11 9 12 11 14 13 13
18 16 16 14 19 22 26 24 21 18 16 10 12 12 10 9 14 11 12 8 3 2 3 5 5 1 3 4 6 9 13 10 7 7 1 2 1 4 2 4 3 4 5 4 3 6 6 11 9 8 9 10 14 11
18 18 18 17 18 17 20 22 22 19 15 10 12 12 10 9 11 13 9 11 7 5 3 10 21 7 10 11 7 10 10 8 5 2 1 2 4 3 4 2 2 4 2 2 1 2 5 4 4 7 8 8 10 11
19 19 18 21 21 22 21 21 23 21 16 13 12 12 9 8 7 12 2 9 11 9 2 3 6 4 5 4 7 4 9 7 4 2 3 4 7 1 1 1 5 7 4 2 3 3 7 6 5 6 7 9 9 10
17 17 16 21 23 20 22 19 16 20 18 13 10 11 8 7 13 12 4 5 13 13 2 5 4 3 10 5 5 3 6 3 4 3 4 4 4 3 1 1 9 7 5 4 1 3 7 5 3 4 4 3 8 10
15 17 19 16 18 20 19 21 20 21 19 13 12 9 7 6 13 19 9 6 12 11 5 2 4 2 7 4 2 3 2 3 4 4 4 4 4 6 1 11 12 8 6 5 5 6 6 4 3 4 3 9 9 10
17 16 16 20 20 20 20 19 22 22 19 15 10 10 6 5 8 9 9 10 4 7 2 4 2 3 9 4 4 3 4 2 4 4 4 2 2 3 5 14 13 9 6 4 5 4 5 6 6 7 6 7 10 9
17 16 17 17 19 21 20 20 19 19 22 18 14 6 5 8 9 10 5 4 8 6 6 4 7 2 10 7 7 4 5 2 2 5 5 3 3 10 13 15 13 9 5 6 8 11 7 10 7 9 8 6 5 4
16 16 16 17 17 20 21 20 20 22 22 17 8 8 5 12 9 5 4 5 6 4 8 9 16 4 6 3 3 4 2 2 2 3 3 2 2 5 9 9 7 6 4 7 6 7 6 6 9 6 4 5 4 5
15 17 17 18 19 19 23 21 21 26 17 15 9 5 10 8 6 5 4 4 5 5 9 7 12 20 5 5 4 5 2 1 4 2 2 2 3 13 12 12 9 6 2 3 2 1 1 4 3 1 2 4 6 7
17 17 19 16 19 19 23 23 23 21 15 11 5 3 4 7 6 6 7 3 3 5 9 11 1 5 5 3 4 1 3 4 9 0 2 2 14 13 12 9 7 6 3 3 5 6 8 5 4 6 7 7 6 6
20 20 21 18 19 19 23 25 27 19 13 5 5 4 4 5 5 4 4 5 7 11 20 18 7 4 4 2 2 3 4 2 3 2 2 4 16 15 12 7 2 3 4 6 7 8 9 8 9 9 9 9 8 9
23 23 22 19 20 21 22 25 24 13 6 3 4 4 4 2 3 1 2 5 10 21 24 12 4 4 1 3 3 2 2 3 1 2 2 16 16 11 7 3 5 8 7 8 9 10 11 10 10 10 10 9 9 8
27 24 24 22 22 22 24 25 22 12 4 3 5 3 7 6 2 1 8 8 13 22 18 4 3 3 2 3 3 5 2 2 3 3 18 19 15 11 8 7 8 7 8 9 9 9 13 15 15 14 14 14 13 11
32 22 28 24 23 23 22 26 16 5 5 3 3 3 7 8 5 4 4 4 9 14 2 3 4 4 3 2 3 2 1 3 16 19 16 13 13 11 11 12 12 11 10 9 10 13 13 12 11 11 11 12 12 13
32 22 28 27 26 25 24 11 6 6 5 7 3 5 2 2 2 2 2 6 5 5 1 1 2 1 3 3 3 3 10 20 21 20 17 13 11 12 14 15 12 11 11 14 15 12 8 7 7 8 10 8 6 7
26 20 29 29 29 13 5 8 5 4 6 4 5 3 3 4 2 4 4 6 4 4 2 0 1 1 2 3 9 19 23 24 23 18 15 13 15 16 15 14 12 14 14 9 8 6 4 6 2 3 2 2 0 1
21 24 31 31 19 4 4 4 8 3 5 6 6 7 4 3 5 4 5 7 6 4 1 1 2 2 3 11 15 23 23 23 25 24 20 16 15 15 15 14 13 12 9 8 6 4 2 5 4 1 4 2 2 2
28 28 28 28 17 4 5 6 6 5 5 6 9 8 3 5 5 5 4 5 2 2 3 3 9 10 11 13 16 19 20 20 22 22 25 23 20 17 14 11 11 10 6 5 6 5 3 4 4 5 6 5 8 5
29 33 28 23 8 4 4 7 4 7 5 5 12 9 4 4 5 6 7 4 3 4 6 14 17 17 17 18 18 16 18 18 16 15 18 21 21 17 15 14 12 8 10 8 5 7 6 5 6 7 3 4 4 7
31 24 13 13 5 5 2 13 4 9 3 7 8 3 1 3 6 9 4 4 6 8 12 16 17 17 20 21 21 21 18 22 21 18 21 18 16 15 14 13 11 11 9 8 7 8 7 7 7 4 2 1 3 4
21 12 7 8 7 4 5 5 7 5 4 3 4 3 4 5 7 3 3 8 8 17 21 24 25 25 23 22 23 23 20 18 18 21 19 21 20 19 15 14 13 12 10 10 8 8 7 5 4 4 3 4 5 5
8 7 4 3 5 6 4 4 3 3 3 4 3 2 3 6 2 3 3 9 22 27 26 28 28 27 30 27 27 25 21 21 23 23 20 17 18 17 15 12 11 13 13 12 9 8 7 5 5 7 6 6 6 5
3 7 4 8 6 5 5 5 6 5 3 3 4 6 6 3 3 5 2 16 24 33 35 35 34 30 27 29 32 27 25 20 20 20 18 19 17 15 16 15 12 9 8 11 9 10 9 7 5 7 7 7 5 5
5 3 3 4 2 5 2 2 9 4 4 5 3 4 3 4 5 1 3 7 17 25 31 31 29 30 28 29 27 25 23 20 19 22 21 19 17 16 14 12 11 9 8 8 10 12 12 9 8 6 6 8 7 7
2 2 4 2 3 2 1 1 4 4 1 4 12 4 6 3 1 3 1 5 8 19 26 25 22 20 24 26 25 30 27 25 24 23 22 21 19 17 16 16 15 13 10 9 9 10 13 12 10 9 8 10 10 8
3 2 3 4 2 3 4 3 2 3 4 4 1 2 3 3 3 7 10 8 13 23 23 23 21 23 26 25 23 25 26 27 26 25 22 21 19 17 16 16 15 14 12 11 10 9 9 11 10 10 9 8 9 9
2 1 3 2 2 2 2 3 3 2 3 5 4 5 5 4 5 7 13 14 17 21 19 19 20 25 26 25 24 23 21 22 23 19 18 16 13 11 12 12 12 10 10 8 8 8 8 8 10 10 10 10 11 12
2 0 2 4 4 3 2 7 9 7 5 6 8 8 7 7 9 10 12 12 16 17 16 17 18 18 20 21 20 20 20 22 22 18 16 13 10 9 9 10 10 10 9 7 7 7 7 6 7 7 6 5 6 6
2 3 1 2 3 4 3 0 2 3 5 4 3 4 8 5 4 4 8 8 9 11 12 14 16 16 14 15 15 15 18 16 17 16 14 12 10 10 9 9 9 9 9 8 7 6 5 6 7 7 8 9 9 10
3 4 5 5 4 5 2 2 4 2 2 3 4 4 3 5 5 3 1 5 4 8 12 12 12 14 14 16 16 16 16 14 14 17 16 12 9 8 8 9 9 8 8 7 7 6 6 7 7 7 7 9 10 10
Wind_Direction
212 207 204 192 187 187 185 177 179 183 187 188 196 199 198 195 195 192 173 231 246 248 284 297 303 318 329 349 10 325 352 359 342 25 15 328 4 316 352 39 336 12 19 352 359 24 357 0 15 43 339 28 46 52
188 191 195 195 198 187 185 181 181 183 182 190 195 197 200 201 193 194 164 207 253 263 266 287 284 237 251 264 297 326 317 333 346 40 17 334 329 350 323 5 4 52 8 93 38 71 54 40 42 25 38 40 29 45
178 188 185 184 187 186 185 179 180 179 174 178 190 193 199 202 201 202 197 238 290 305 308 314 54 329 332 9 220 240 246 342 61 30 276 278 305 63 24 309 2 30 28 64 169 38 76 42 31 38 39 41 37 38
179 179 180 175 170 182 186 182 181 179 175 175 190 196 200 206 201 199 208 225 253 326 295 293 337 3 284 268 239 239 237 288 316 345 283 271 265 346 264 265 62 6 6 331 96 59 98 60 36 22 33 49 43 47
181 185 184 184 185 189 189 182 183 182 179 181 184 191 197 201 204 203 211 229 241 237 313 296 316 310 249 226 214 235 236 255 279 292 271 252 276 2 310 103 61 21 33 64 88 321 281 84 46 33 43 44 50 49
176 179 181 184 179 183 182 187 193 186 176 176 177 187 198 208 200 189 244 243 230 234 298 304 295 253 185 203 221 237 218 207 200 226 248 263 269 282 302 58 116 99 70 90 149 116 113 127 67 52 50 52 57 56
175 172 175 175 168 174 175 175 175 182 174 177 179 185 188 207 187 173 173 192 186 211 186 285 271 45 180 174 169 146 180 204 216 240 238 238 258 247 258 125 134 113 98 74 117 168 106 90 60 44 47 72 77 73
174 174 179 182 170 165 172 177 176 171 173 170 165 166 183 217 202 207 164 140 161 179 189 257 265 182 186 135 148 177 206 239 246 235 254 237 269 205 136 122 125 129 119 71 60 61 95 97 64 52 75 84 85 76
173 174 170 174 175 175 174 170 171 175 176 169 158 152 180 201 197 219 229 257 293 216 223 226 217 230 167 149 132 172 198 239 243 211 237 183 280 56 40 100 93 84 69 30 141 106 78 63 50 42 56 74 82 80
171 167 172 170 174 174 171 171 168 177 175 164 162 156 187 190 165 183 162 197 199 202 225 256 215 272 179 159 182 182 200 232 229 229 189 130 90 90 78 82 81 75 72 70 123 61 71 56 61 69 67 68 68 56
173 173 170 174 172 175 173 171 168 166 157 160 168 202 166 166 154 178 199 199 184 210 215 223 207 203 211 132 174 216 209 236 264 242 155 150 113 108 108 96 84 78 87 99 123 128 120 110 104 113 72 50 45 49
179 179 177 173 175 173 175 173 173 165 161 173 169 181 153 166 184 191 206 200 196 213 194 193 199 200 173 181 138 198 225 277 252 171 127 102 102 126 112 99 92 89 77 85 51 80 144 128 141 135 38 52 69 81
189 184 182 178 175 178 177 174 172 166 169 157 179 224 205 186 179 202 186 209 175 209 160 156 100 127 128 152 79 100 230 239 326 50 89 80 129 133 133 140 124 120 106 47 49 63 77 90 77 77 78 70 76 82
188 186 183 179 177 173 175 174 170 164 160 178 181 248 211 185 217 196 188 166 193 159 146 145 137 133 121 100 133 207 228 279 272 161 145 132 133 128 136 153 173 96 76 71 76 78 79 77 75 73 65 60 67 80
186 184 182 181 176 172 174 175 173 159 161 182 216 233 240 330 66 192 240 133 125 159 150 141 112 111 55 138 191 239 240 243 37 151 113 131 144 156 159 142 116 109 95 90 93 89 79 70 69 67 63 61 61 69
177 176 184 180 175 175 176 177 174 164 177 233 245 276 312 294 114 82 113 81 126 147 143 137 125 148 188 185 167 217 240 202 145 101 131 151 154 156 154 142 132 127 119 107 104 100 94 80 67 64 68 61 55 55
172 174 179 179 174 176 181 159 149 169 197 233 245 253 277 297 9 85 124 160 152 160 156 153 150 185 110 176 194 61 161 156 128 134 150 167 170 164 156 144 135 132 127 120 106 104 93 81 62 49 60 63 56 45
171 178 174 169 169 171 145 146 156 181 227 238 244 187 197 326 50 73 161 179 155 177 82 201 117 130 189 196 163 135 115 125 139 147 155 158 157 154 143 137 135 136 125 113 106 95 88 102 73 54 47 33 53 38
166 172 173 173 162 120 120 169 177 213 223 219 219 210 192 240 200 197 204 185 140 116 157 134 79 168 133 106 130 137 144 152 144 143 141 144 144 143 145 145 146 134 124 119 118 84 100 113 117 92 80 47 162 333
173 173 176 174 147 119 119 161 189 207 202 218 195 188 200 199 206 191 185 165 148 131 81 46 75 105 156 158 173 167 165 164 155 144 149 156 163 154 146 136 133 130 124 128 134 130 165 133 146 21 331 276 204 281
157 160 163 167 183 198 181 180 185 196 175 184 176 146 152 167 164 169 167 150 189 156 129 144 139 153 158 160 168 169 165 170 171 168 162 155 145 142 148 148 142 131 133 176 170 120 165 200 273 313 306 303 308 321
154 163 166 182 202 217 192 181 173 166 163 169 162 174 184 183 150 167 166 215 200 178 181 171 169 164 162 160 160 166 152 145 157 154 152 147 151 160 167 161 155 156 167 181 185 190 224 262 285 296 306 321 348 0
161 161 171 187 217 184 225 153 163 171 146 180 160 154 153 145 168 166 218 217 194 197 191 179 169 170 162 159 158 158 169 169 164 162 157 155 161 163 159 165 176 184 195 211 231 241 250 267 281 267 279 180 329 349
171 152 194 194 186 156 176 212 175 158 129 175 177 181 163 143 163 228 246 182 183 172 172 172 172 166 166 167 166 162 164 174 162 156 162 171 170 171 177 183 190 200 207 203 222 244 250 270 271 233 227 259 241 277
149 188 207 188 164 181 192 169 162 152 187 193 142 152 153 156 162 221 235 176 180 177 180 180 180 182 174 173 172 167 175 181 171 168 174 188 183 177 182 192 201 210 217 224 226 234 243 266 271 233 241 236 235 242
204 189 218 178 182 189 175 162 183 175 141 154 193 134 153 163 195 236 245 186 182 182 184 186 183 181 178 178 172 176 180 189 182 174 177 194 197 197 191 194 200 205 212 218 211 223 250 252 271 250 248 240 240 275
194 178 195 194 218 131 120 135 143 133 170 172 168 159 149 187 227 254 137 190 191 195 194 190 185 180 178 181 186 180 176 185 190 186 182 188 193 190 203 212 215 229 221 221 226 230 233 244 253 258 229 234 249 267
96 60 158 120 74 49 131 132 175 186 161 119 142 181 180 193 160 360 335 234 218 189 183 176 181 184 188 190 188 182 183 184 188 197 197 198 202 205 210 214 223 234 240 249 247 232 227 232 242 250 247 236 246 264
89 97 106 20 72 74 42 18 52 57 8 353 184 90 83 83 77 75 127 168 169 165 165 174 184 190 185 190 196 198 200 198 195 196 202 203 204 207 209 217 226 232 238 245 245 239 229 228 236 243 243 247 255 261
107 77 106 96 95 91 69 37 75 53 65 79 86 98 83 107 97 99 143 159 171 174 182 188 182 186 185 189 188 193 204 208 206 211 211 210 209 207 206 214 221 223 226 229 224 220 221 224 226 234 242 249 262 264
94 88 94 83 72 76 56 107 113 102 100 79 86 116 125 127 113 101 142 150 183 188 188 185 187 193 198 201 207 202 189 196 204 206 209 216 219 211 210 212 215 221 230 227 219 217 215 211 216 219 237 262 274 267
48 29 126 108 118 135 115 294 182 144 149 120 106 113 121 103 85 83 60 135 168 199 196 199 203 208 218 225 221 216 215 212 213 209 210 215 217 221 222 218 216 213 219 228 233 236 228 225 228 229 234 242 262 277
103 78 102 117 136 183 163 209 173 133 158 93 81 141 79 94 90 54 220 89 115 172 204 211 213 213 213 215 220 224 217 216 219 215 214 217 221 220 217 217 224 222 219 224 232 233 230 229 236 245 247 255 268 277
Height
1394 1398 1402 1410 1417 1423 1429 1434 1439 1443 1447 1451 1453 1456 1460 1463 1468 1470 1472 1474 1476 1475 1472 1473 1474 1474 1473 1474 1475 1472 1470 1469 1466 1469 1465 1464 1461 1455 1452 1454 1450 1449 1451 1459 1447 1445 1450 1454 1443 1448 1460 1458 1457 1454
1392 1397 1401 1406 1414 1420 1427 1432 1438 1442 1446 1450 1454 1457 1459 1463 1466 1469 1472 1474 1474 1476 1473 1472 1471 1471 1470 1472 1474 1472 1473 1472 1469 1472 1472 1469 1468 1462 1459 1452 1450 1450 1452 1455 1460 1463 1467 1465 1465 1465 1463 1462 1461 1458
1392 1397 1401 1405 1411 1418 1424 1431 1437 1442 1446 1450 1453 1456 1459 1462 1465 1468 1471 1473 1474 1474 1470 1467 1466 1467 1467 1467 1469 1473 1472 1472 1472 1473 1472 1471 1469 1465 1466 1463 1455 1454 1453 1459 1462 1467 1467 1467 1468 1468 1466 1464 1464 1461
1392 1396 1401 1406 1412 1418 1424 1430 1436 1441 1446 1449 1452 1455 1458 1460 1464 1467 1470 1472 1474 1476 1475 1467 1466 1465 1466 1466 1467 1469 1470 1471 1472 1473 1472 1472 1470 1462 1464 1461 1460 1465 1462 1467 1467 1470 1471 1470 1471 1470 1468 1466 1465 1463
1392 1396 1400 1407 1413 1418 1424 1429 1435 1440 1445 1448 1451 1454 1457 1460 1462 1466 1469 1470 1473 1478 1475 1469 1465 1462 1462 1464 1466 1467 1469 1470 1471 1472 1471 1473 1465 1465 1461 1460 1465 1468 1470 1469 1470 1473 1472 1474 1473 1471 1469 1468 1466 1465
1391 1396 1401 1406 1412 1418 1423 1428 1434 1439 1444 1448 1451 1454 1457 1459 1462 1466 1468 1470 1472 1474 1475 1472 1464 1462 1462 1464 1465 1466 1467 1469 1470 1471 1470 1467 1464 1466 1465 1468 1470 1470 1471 1471 1472 1472 1472 1473 1472 1471 1470 1469 1467 1466
1391 1396 1400 1405 1411 1417 1422 1428 1433 1438 1444 1447 1450 1454 1456 1459 1461 1464 1467 1467 1468 1473 1475 1472 1463 1460 1461 1463 1464 1465 1467 1468 1470 1469 1467 1465 1463 1464 1464 1466 1470 1470 1472 1472 1472 1472 1472 1471 1472 1472 1471 1469 1468 1467
1392 1396 1401 1405 1410 1416 1422 1427 1432 1437 1443 1447 1451 1453 1456 1458 1460 1463 1464 1466 1468 1470 1474 1471 1464 1461 1461 1462 1465 1466 1467 1468 1467 1466 1464 1461 1460 1459 1463 1466 1469 1471 1472 1472 1472 1471 1471 1472 1471 1470 1469 1468 1467 1467
1392 1397 1401 1406 1411 1417 1422 1427 1432 1437 1442 1447 1451 1454 1457 1458 1460 1462 1465 1466 1468 1471 1469 1467 1464 1466 1460 1462 1464 1466 1466 1467 1464 1463 1460 1459 1459 1466 1466 1467 1470 1471 1472 1472 1472 1472 1472 1471 1471 1469 1469 1468 1468 1468
1393 1397 1402 1406 1411 1416 1421 1427 1431 1437 1442 1447 1451 1454 1455 1455 1459 1463 1465 1466 1466 1466 1467 1463 1459 1460 1459 1459 1463 1466 1465 1463 1463 1456 1454 1457 1468 1471 1471 1471 1471 1472 1472 1471 1471 1473 1473 1472 1471 1470 1470 1470 1470 1470
1393 1398 1402 1407 1411 1416 1421 1426 1431 1436 1441 1446 1450 1450 1453 1455 1460 1462 1462 1463 1462 1461 1458 1453 1453 1454 1455 1458 1461 1461 1461 1459 1459 1452 1452 1453 1464 1471 1472 1472 1473 1473 1472 1472 1472 1472 1472 1472 1472 1471 1471 1471 1470 1470
1393 1398 1402 1407 1412 1416 1422 1426 1431 1435 1440 1445 1446 1449 1450 1455 1457 1458 1455 1454 1453 1449 1444 1444 1446 1449 1452 1453 1455 1459 1458 1456 1455 1447 1451 1461 1470 1471 1473 1474 1474 1474 1473 1473 1473 1472 1472 1472 1472 1472 1472 1471 1471 1471
1393 1398 1402 1407 1411 1416 1421 1427 1431 1437 1440 1445 1447 1447 1444 1447 1449 1448 1443 1442 1444 1434 1435 1437 1443 1446 1450 1452 1454 1456 1455 1454 1449 1449 1456 1465 1469 1472 1473 1473 1474 1475 1474 1474 1473 1473 1473 1473 1473 1472 1472 1472 1472 1472
1392 1397 1402 1407 1412 1416 1421 1427 1432 1436 1442 1444 1445 1445 1441 1434 1432 1430 1428 1427 1426 1428 1432 1437 1441 1444 1447 1451 1451 1454 1453 1451 1450 1452 1460 1466 1469 1471 1472 1473 1474 1475 1475 1475 1475 1475 1475 1475 1474 1473 1473 1473 1473 1473
1391 1397 1402 1408 1412 1417 1422 1427 1433 1436 1439 1441 1441 1439 1430 1425 1425 1425 1424 1423 1424 1427 1432 1437 1441 1443 1446 1450 1451 1452 1451 1454 1451 1458 1463 1466 1468 1470 1472 1473 1474 1475 1475 1476 1476 1477 1477 1477 1477 1476 1476 1476 1475 1475
1391 1398 1403 1408 1412 1418 1423 1428 1432 1436 1438 1439 1437 1433 1429 1424 1426 1426 1425 1424 1425 1428 1434 1437 1440 1443 1448 1445 1448 1452 1447 1449 1454 1459 1462 1465 1468 1470 1472 1473 1475 1476 1477 1477 1478 1479 1479 1480 1480 1480 1480 1479 1478 1478
1390 1394 1401 1407 1413 1419 1422 1425 1432 1435 1436 1435 1432 1431 1431 1429 1427 1428 1428 1428 1429 1431 1434 1434 1440 1438 1440 1446 1443 1446 1449 1454 1456 1460 1462 1465 1467 1469 1471 1473 1475 1477 1478 1479 1480 1481 1481 1482 1482 1482 1482 1482 1482 1481
1391 1396 1401 1408 1414 1419 1421 1427 1431 1433 1433 1432 1432 1431 1431 1431 1430 1430 1429 1430 1431 1431 1432 1434 1434 1438 1440 1438 1445 1449 1452 1454 1457 1459 1462 1465 1467 1469 1472 1473 1476 1478 1479 1480 1482 1482 1483 1483 1484 1485 1484 1483 1483 1482
1393 1398 1404 1409 1414 1418 1423 1429 1430 1430 1430 1429 1429 1429 1429 1430 1430 1429 1430 1431 1431 1432 1433 1433 1436 1435 1438 1440 1443 1446 1450 1452 1456 1461 1463 1466 1468 1470 1472 1475 1477 1478 1480 1482 1483 1483 1484 1485 1485 1485 1485 1485 1484 1484
1396 1400 1405 1412 1417 1419 1423 1426 1428 1429 1428 1427 1427 1428 1429 1429 1429 1429 1430 1431 1432 1433 1433 1434 1435 1436 1437 1438 1440 1443 1447 1451 1454 1459 1463 1466 1468 1470 1473 1475 1477 1479 1480 1482 1483 1484 1484 1484 1485 1484 1484 1483 1483 1483
1398 1404 1412 1416 1419 1420 1422 1422 1423 1424 1423 1425 1426 1427 1429 1429 1429 1429 1430 1431 1432 1431 1433 1433 1435 1436 1437 1439 1441 1443 1447 1450 1453 1455 1458 1463 1467 1470 1472 1475 1477 1478 1480 1481 1482 1483 1483 1484 1483 1483 1482 1482 1481 1481
1399 1406 1411 1416 1419 1418 1419 1419 1420 1421 1424 1423 1426 1427 1427 1427 1427 1429 1430 1431 1430 1430 1430 1431 1433 1435 1437 1440 1442 1445 1448 1452 1455 1457 1461 1463 1466 1469 1472 1474 1476 1477 1479 1480 1481 1482 1482 1482 1482 1481 1481 1480 1480 1480
1403 1409 1413 1416 1416 1415 1417 1417 1418 1420 1421 1422 1423 1424 1424 1424 1426 1428 1428 1426 1426 1426 1427 1430 1432 1436 1438 1441 1444 1447 1449 1451 1454 1457 1460 1463 1466 1468 1471 1473 1474 1476 1477 1478 1479 1479 1480 1480 1479 1479 1479 1478 1478 1478
1406 1409 1410 1410 1411 1412 1414 1414 1415 1416 1417 1419 1419 1421 1421 1423 1425 1426 1422 1420 1422 1424 1426 1428 1430 1434 1438 1442 1443 1446 1448 1451 1453 1457 1459 1461 1464 1467 1469 1471 1472 1474 1475 1476 1476 1476 1477 1477 1477 1477 1477 1477 1477 1477
1405 1408 1408 1405 1406 1409 1409 1410 1410 1413 1414 1414 1417 1417 1419 1421 1424 1422 1415 1414 1416 1418 1421 1425 1428 1431 1433 1437 1442 1445 1447 1449 1451 1454 1458 1460 1462 1465 1467 1468 1470 1471 1473 1474 1475 1474 1475 1475 1475 1475 1475 1475 1475 1475
1398 1400 1401 1399 1400 1401 1402 1404 1407 1407 1409 1412 1413 1412 1415 1417 1419 1416 1406 1404 1407 1410 1413 1417 1421 1426 1431 1434 1437 1441 1444 1448 1451 1454 1457 1458 1460 1461 1463 1464 1466 1468 1469 1470 1471 1471 1472 1472 1472 1472 1472 1472 1472 1472
1395 1396 1396 1396 1396 1396 1397 1397 1398 1401 1406 1408 1407 1411 1413 1418 1414 1407 1406 1405 1406 1408 1412 1416 1420 1424 1427 1431 1436 1441 1444 1447 1449 1453 1454 1455 1457 1459 1461 1461 1462 1465 1466 1467 1468 1468 1468 1469 1469 1469 1469 1468 1468 1469
1393 1393 1395 1395 1394 1395 1396 1396 1398 1400 1398 1398 1402 1407 1410 1409 1409 1408 1406 1406 1406 1408 1413 1419 1423 1426 1428 1431 1434 1437 1441 1444 1446 1449 1452 1454 1456 1457 1458 1460 1461 1462 1463 1464 1464 1465 1465 1465 1466 1466 1466 1466 1466 1466
1393 1394 1394 1396 1396 1397 1398 1399 1398 1400 1400 1400 1400 1403 1406 1408 1409 1409 1409 1409 1410 1413 1417 1419 1422 1424 1426 1429 1434 1437 1439 1441 1443 1446 1448 1450 1451 1453 1455 1456 1457 1458 1459 1460 1460 1461 1462 1462 1463 1463 1463 1463 1463 1463
1394 1393 1394 1396 1397 1398 1401 1400 1401 1401 1401 1402 1402 1405 1408 1410 1411 1411 1411 1413 1415 1417 1418 1419 1421 1424 1426 1429 1432 1435 1438 1440 1442 1445 1445 1446 1448 1450 1451 1452 1453 1455 1455 1456 1457 1458 1458 1459 1460 1460 1460 1461 1461 1460
1393 1393 1394 1395 1398 1401 1401 1400 1401 1402 1402 1403 1403 1405 1408 1411 1413 1413 1414 1415 1417 1418 1419 1421 1424 1426 1428 1429 1431 1433 1435 1437 1439 1441 1443 1444 1446 1447 1448 1449 1450 1451 1452 1453 1454 1455 1455 1456 1456 1457 1457 1457 1457 1458
1394 1394 1394 1396 1400 1401 1401 1401 1402 1403 1404 1405 1406 1407 1410 1412 1415 1417 1418 1418 1419 1419 1420 1422 1424 1426 1428 1429 1431 1433 1434 1436 1437 1439 1441 1442 1443 1444 1445 1446 1448 1448 1449 1450 1451 1452 1452 1453 1453 1453 1454 1454 1454 1454
1394 1395 1395 1397 1399 1400 1402 1402 1402 1403 1404 1405 1407 1408 1409 1412 1417 1420 1420 1419 1419 1419 1420 1422 1423 1425 1427 1428 1430 1431 1433 1435 1436 1437 1439 1441 1442 1443 1443 1444 1445 1446 1447 1448 1448 1449 1450 1450 1450 1451 1451 1451 1451 1451